Location: ?
(35.3436°N, 139.3168°E)
Time: 20:45:06
(UTC+00:00)

ERS-2 - Pass Details

Date: 29 October 2020
Orbit: 493 x 498 km, 98.6° (Epoch: 24 November)

Event Time Altitude Azimuth Distance (km) Brightness Sun altitude
Rises 19:55:15 0° 188° (S) 2,563 5.7 -14.2°
Reaches altitude 10° 19:57:30 10° 199° (SSW) 1,684 4.7 -13.8°
Maximum altitude 20:00:41 29° 261° (W) 925 2.9 -13.1°
Enters shadow 20:03:28 13° 320° (NW) 1,533 4.2 -12.5°
